Location: Caoma
(10.5237°N, 67.1352°W)
Time: 22:59:23
(UTC+00:00)

STARLINK-31719 - Pass Details

Date: 18 April 2024
Orbit: 443 x 445 km, 43.0° (Epoch: 24 May)

Event Time Altitude Azimuth Distance (km) Brightness Sun altitude
Rises 23:00:44 0° 319° (NW) 2,441 7.9 -5.9°
Reaches altitude 10° 23:02:54 10° 324° (NW) 1,572 6.8 -6.4°
Maximum altitude 23:06:25 58° 44° (NE) 527 3.4 -7.3°
Drops below altitude 10° 23:09:57 10° 124° (SE) 1,580 5.4 -8.1°
Enters shadow 23:10:09 - 124° (SE) 1,657 5.5 -8.2°
